WetterOnline ( http://www.wetteronline.de )

Wetter aktuell Utrecht

Aktuelles Wetter: De Bilt (4m)

6-stündlich | Neueste Meldungen
Ortszeit Temperatur Wetter
Di, 18.12. 13:00 7.7° C bedeckt
Di, 18.12. 7:00 6.3° C bedeckt
Di, 18.12. 1:00 4.4° C bedeckt
Mo, 17.12. 19:00 6.2° C bewölkt
Mo, 17.12. 13:00 7.4° C bewölkt
Mo, 17.12. 7:00 4.9° C Sprühregen
Mo, 17.12. 1:00 2.4° C Nebel
So, 16.12. 19:00 3.0° C Nebel
Ortszeit Temperatur Wetter
Di, 18.12. 18:00 6.3° C bedeckt
Di, 18.12. 17:00 6.7° C bedeckt
Di, 18.12. 16:00 6.9° C bedeckt
Di, 18.12. 15:00 7.3° C wolkig
Di, 18.12. 14:00 7.6° C bewölkt
Di, 18.12. 13:00 7.7° C bedeckt
Ortszeit Relative Feuchte Sichtweite
Di, 18.12. 13:00 86% 23 km
Di, 18.12. 7:00 97% 4.7 km
Di, 18.12. 1:00 99% 3.1 km
Mo, 17.12. 19:00 91% 22 km
Mo, 17.12. 13:00 93% 18 km
Mo, 17.12. 7:00 98% 7 km
Mo, 17.12. 1:00 100% 0.5 km
So, 16.12. 19:00 100% 0.7 km
Ortszeit Relative Feuchte Sichtweite
Di, 18.12. 18:00 85% 35 km
Di, 18.12. 17:00 85% 30 km
Di, 18.12. 16:00 87% 30 km
Di, 18.12. 15:00 87% 30 km
Di, 18.12. 14:00 87% 28 km
Di, 18.12. 13:00 86% 23 km
Ortszeit Niederschlagsmenge Niederschlagsart
Di, 18.12. 13:00 0.0 l/m2 in 6 Std. -
Di, 18.12. 7:00 0.0 l/m2 in 12 Std. -
Di, 18.12. 1:00 0.0 l/m2 in 6 Std. -
Mo, 17.12. 19:00 6 l/m2 in 12 Std. -
Mo, 17.12. 13:00 6 l/m2 in 6 Std. Regen
Mo, 17.12. 7:00 0.7 l/m2 in 12 Std. Schauer
Mo, 17.12. 1:00 0.1 l/m2 in 6 Std. -
So, 16.12. 19:00 0.1 l/m2 in 12 Std. -
Ortszeit Niederschlagsmenge Niederschlagsart
Di, 18.12. 18:00 keine Meldung -
Di, 18.12. 17:00 keine Meldung -
Di, 18.12. 16:00 0.0 l/m2 in 1 Std. -
Di, 18.12. 15:00 0.0 l/m2 in 1 Std. -
Di, 18.12. 14:00 0.0 l/m2 in 1 Std. -
Di, 18.12. 13:00 0.0 l/m2 in 1 Std. -
Ortszeit Stärke Spitze Richtung
km/h Bft. km/h Grad Sektor
Di, 18.12. 13:00 14 3 32 170° S
Di, 18.12. 7:00 11 2 29 160° S
Di, 18.12. 1:00 11 2 22 170° S
Mo, 17.12. 19:00 11 2 25 210° SW
Mo, 17.12. 13:00 14 3 29 230° SW
Mo, 17.12. 7:00 14 3 22 150° SO
Mo, 17.12. 1:00 14 3 29 160° S
So, 16.12. 19:00 11 2 22 190° S
Ortszeit Stärke Spitze Richtung
km/h Bft. km/h Grad Sektor
Di, 18.12. 18:00 22 4 36 140° SO
Di, 18.12. 17:00 22 4 32 130° SO
Di, 18.12. 16:00 14 3 29 140° SO
Di, 18.12. 15:00 14 3 25 140° SO
Di, 18.12. 14:00 14 3 29 150° SO
Di, 18.12. 13:00 14 3 32 170° S
Ortszeit Untergrenze Bedeckung Gattung
total tief tief mittel hoch
Di, 18.12. 13:00 330 m 8/8 8/8 - - -
Di, 18.12. 7:00 - 8/8 8/8 - - -
Di, 18.12. 1:00 - 8/8 8/8 - - -
Mo, 17.12. 19:00 - 7/8 7/8 - - -
Mo, 17.12. 13:00 - 8/8 6/8 - - -
Mo, 17.12. 7:00 180 m 8/8 8/8 - - -
Mo, 17.12. 1:00 30 m - - - - -
So, 16.12. 19:00 30 m - - - - -
Ortszeit Bedeckungsgrad in Achtel und Wolkenuntergrenze
Di, 18.12. 18:00 8(3900m)
Di, 18.12. 17:00 8(4500m)
Di, 18.12. 16:00 8
Di, 18.12. 15:00 8(7500m)
Di, 18.12. 14:00 3(420m) 4(480m) 8(9000m)
Di, 18.12. 13:00 7(330m) 8(390m)
Ortszeit Luftdruck NN (hPa) Tendenz (hPa in 3 Std.)
Di, 18.12. 13:00 1019 - 2,0
Di, 18.12. 7:00 1022 - 0,7
Di, 18.12. 1:00 1023 + 0,1
Mo, 17.12. 19:00 1021 + 2,2
Mo, 17.12. 13:00 1016 + 2,0
Mo, 17.12. 7:00 1013 + 0,1
Mo, 17.12. 1:00 1013 + 0,6
So, 16.12. 19:00 1011 + 0,9
Ortszeit Luftdruck NN (hPa) Tendenz (hPa in 3 Std.)
Di, 18.12. 18:00 1014 - 2,4
Di, 18.12. 17:00 1015 - 2,3
Di, 18.12. 16:00 1016 - 2,8
Di, 18.12. 15:00 1017 - 3,0
Di, 18.12. 14:00 1018 - 2,8
Di, 18.12. 13:00 1019 - 2,0
Ortszeit Schneehöhe (cm)
Di, 18.12. 13:00 -
Di, 18.12. 7:00 -
Di, 18.12. 1:00 -
Mo, 17.12. 19:00 -
Mo, 17.12. 13:00 -
Mo, 17.12. 7:00 -
Mo, 17.12. 1:00 -
So, 16.12. 19:00 -
Ortszeit Schneehöhe (cm)
Di, 18.12. 18:00 -
Di, 18.12. 17:00 -
Di, 18.12. 16:00 -
Di, 18.12. 15:00 -
Di, 18.12. 14:00 -
Di, 18.12. 13:00 -
Link zu dieser Seite / Seite empfehlen

Das Wetter in ...